Location: Newark
(43.7333°N, 7.4000°E)
Time: 22:08:32
(UTC+00:00)

Envisat - Pass Details

Date: 28 September 2020
Orbit: 764 x 766 km, 98.1° (Epoch: 29 October)

Event Time Altitude Azimuth Distance (km) Brightness Sun altitude
Rises 17:52:53 0° 206° (SSW) 3,217 6.5 -7.5°
Reaches altitude 10° 17:55:49 10° 224° (SW) 2,296 6.1 -8.0°
Maximum altitude 17:59:22 19° 269° (W) 1,758 6.2 -8.6°
Drops below altitude 10° 18:02:57 10° 314° (NW) 2,308 6.3 -9.3°
Sets 18:05:56 0° 332° (NNW) 3,240 6.8 -9.8°
